Погода в Минине

Россия / Красноярский край     56°04′34″N   92°41′49″E
темп.,
°C
ветер,
м/с
пор.,
м/с
влажн.,
%
обл.,
%
осадки,
мм/ч
давл.,
гПа
погр.,
м
8 мая, сб
сб801:00+8з38760 0.3 1011192
04:00+6зюз358994 0.1 1012109
07:00+8з387361 0.2 1013975
10:00+10з6106323 0.8 10121510
13:00+11з6947100 1.1 10122369
16:00+10зсз51057100 0.3 10121532
19:00+8з4673100 0.8 1012878
22:00+7зюз5108052 0.4 1012898
9 мая, вс
вс901:00+5з498496 0.9 1012645
04:00+3з499056 0.2 1013525
07:00+3зсз5876100 0.2 1014958
10:00+4зсз5772100 0.1 10151057
13:00+6ссз576792 0.4 10161235
16:00+6с367295 0.8 10171019
19:00+7ссз357042 1.8 1018978
22:00+3зсз239084 0.1 102067
10 мая, пн
пн1001:00+3зсз2389100 0.1 1020105
04:00+3з2290100 0.0 102194
07:00+4зсз238999 0.0 1022209
10:00+7ссз247574 0.1 1023833
13:00+9ссз2360100 0.1 10221351
16:00+11с3450100 0.3 10221609
19:00+10ссв245773 0.4 1021539
22:00+6вюв11745 0.1 102210
11 мая, вт
вт1101:00+4в01845 0.1 102110
04:00+3всв11880 0.0 102010
07:00+6всв24785 0.0 1019256
10:00+10всв57598 0.0 10171191
13:00+13в564313 0.0 10151904
16:00+15в453898 0.0 10142220
19:00+13всв474589 0.0 1013471
22:00+9всв4116185 0.0 1014534
12 мая, ср
ср1201:00+7св226798 0.0 101424
04:00+5ссв237912 0.0 101449
07:00+6ссв2374100 0.0 1015276
10:00+9св4560100 0.0 1016928
13:00+13св5645100 0.1 10152155
16:00+12ссв6645100 0.1 10151799
19:00+11ссв464649 0.1 10171054
22:00+7с255950 0.0 101985